Location: Downe
(51.3167°N, 0.0500°E)
Time: 16:19:38
(UTC+00:00)

SL-4 R/B - Pass Details

Date: 17 November 2019
Orbit: 428 x 667 km, 51.6° (Epoch: 09 December)

Event Time Altitude Azimuth Distance (km) Brightness Sun altitude
Exits shadow 05:35:21 28° 269° (W) 1,262 3.3 -16.1°
Maximum altitude 05:37:39 51° 207° (SSW) 838 2.8 -15.7°
Drops below altitude 10° 05:42:19 10° 132° (SE) 2,071 5.9 -15.0°
Sets 05:44:40 0° 127° (SE) 2,963 7.0 -14.7°
